BREEZE-M DEB (TANK), 40260

Orbit data source: Space-Track

BREEZE-M DEB (TANK), 40260 is space debris in HEO originally from a launch on Sat, 27 Sep 2014 UTC launched from the Tyuratam Missile And Space Complex (TTMTR). Debris objects in space refer to the collection of defunct objects orbiting the Earth. Examples of debris include non-operational satellites, rocket bodies, and fragments generated from explosions, collisions, or faulty payload assembly.

Loading next visibility...
Identifier
40260, 2014-058C
Orbit
HEO
Country
Flag of CISCIS
Related business
Manufacturer
Khrunichev
Mission
Spacecraft
Bus & Motor
BRIZ TANK, Unknown motor
Mass
~1,000 kg wet, 1,000 kg dry
Launch date (UTC)
2014-09-27 (11 years ago)
Launch vehicle
Unknown
Launch site
Tyuratam Missile And Space Complex (TTMTR)
Object type
Payload
Rocket body
Debris
Shape & HBR
Torus, 2.0 m
Radar Cross Section
8.218 m², Large (>1 m²)

Expand to show TLE details & history
Last TLE update: 8 hours ago

TLE from 8 hours ago
0 BREEZE-M DEB (TANK)
1 40260U 14058C   25298.41809034 -.00000170  00000-0  33734-3 0  9997
2 40260  45.8329 357.3885 7013565 359.6346   0.2402  2.27181550 91208
Epoch: 2025-10-25T10:02Z
TLE epoch observation values (Epoch: 2025-10-25T10:02:03.005Z)
Latitude
0.00006°
Longitude
172.8359°
Altitude
915.139 km
Speed
9.644 km/s
True Right ascension
23h 49m 35s
True Declination
0° 00' 00"
Sunlit
Object was in full shadow at epoch
Visualization orbit readout
Latitude
Unknown
Longitude
Unknown
Altitude
Unknown
Speed
Unknown
Apparent Right ascension
Unknown
Apparent Declination
Unknown
Sunlit
N/A
Visualization observer readout
Local Sidereal Time
12:54:22
Azimuth
Unknown
Elevation
Unknown
Doppler factor
Unknown
Orbital elements
Apogee altitude
35,209.946 km
Perigee altitude
921.927 km
Semi-major axis
24,444.073 km
Eccentricity
0.70136
Inclination
45.8329°
RAAN
357.3885°
Arg. of periapsis
359.6346°
True anomaly
1.91944°
Mean anomaly
0.2402°
Eccentric anomaly
0.80424°
Mean motion
0.56791 °/min
Orbital period
633.9 mins
BSTAR
0.00033734
Loading maneuver chart data...
Computing Atmospheric mass density...
Loading historical data...
Loading historical data...
Loading historical data...
Loading historical data...
Loading historical data...
Loading historical data...
Loading historical data...
Other satellites on launch #58 in the year 2014 (2014-09-27 UTC)

Documentation

Showing up to 5 results
|